Tracking 27420 objects as of 28-May-2023
HD Live streaming from Space Station
objects crossing your sky now

STARLINK-6050

Track STARLINK-6050 now!
10-day predictions
STARLINK-6050 is classified as:


NORAD ID: 56458
Int'l Code: 2023-064L
Perigee: 364.0 km
Apogee: 368.5 km
Inclination: 70.0 °
Period: 91.7 minutes
Semi major axis: 6737 km
RCS: Unknown
Launch date: May 10, 2023
Source: United States (US)
Launch site: AIR FORCE WESTERN TEST RANGE (AFWTR)
Your satellite tracking list
Your tracking list is empty




NASA's NSSDC Master Catalog

Two Line Element Set (TLE):
1 56458U 23064L   23148.58334491  .00020162  00000-0  16910-3 0  9999
2 56458  69.9985 195.1055 0003339 279.5566 225.5120 15.69915692  3182
Source of the keplerian elements: AFSPC